Location: Gajan
(43.0218°N, 1.1244°E)
Time: 02:49:24
(UTC+00:00)

Cosmos 1812 Rocket - Pass Details

Date: 22 April 2021
Orbit: 606 x 632 km, 82.5° (Epoch: 15 May)

Event Time Altitude Azimuth Distance (km) Brightness Sun altitude
Exits shadow 20:14:33 - 187° (S) 2,688 6.6 -15.3°
Reaches altitude 10° 20:16:16 10° 187° (S) 1,995 5.9 -15.5°
Maximum altitude 20:20:42 88° 272° (W) 636 3.6 -16.2°
Drops below altitude 10° 20:25:12 10° 8° (N) 2,021 6.6 -16.9°
Sets 20:27:27 0° 9° (N) 2,935 7.4 -17.2°
